Weather History for Baker, MT

Change the Weather History Date:

Wednesday, November 28, 2012

  Actual Average Record
Temperature  
Mean Temperature 32 °F -  
Max Temperature 44 °F 38 °F 61 °F (2002)
Min Temperature 19 °F 8 °F -7 °F (2006)
Degree Days  
Heating Degree Days 34    
Moisture  
Dew Point 17 °F    
Average Humidity 67    
Maximum Humidity 81    
Minimum Humidity 37    
Precipitation  
Precipitation 0.00 in - - ()
Sea Level Pressure  
Sea Level Pressure 30.09 in    
Wind  
Wind Speed 5 mph (SE)    
Max Wind Speed 12 mph    
Max Gust Speed -    
Visibility 10 miles    
Events      
Averages and records for this station are not official NWS values.
T = Trace of Precipitation, MM = Missing Value Source: NWS Daily Summary

Daily Weather History Graph

Daily Weather History Graph

Search for Another Location

Airport:

Trip Planner

Search our weather history database for the weather conditions in past years. The results will help you decide how hot, cold, wet, or windy it might be!

Date:

Astronomy

Nov. 28, 2012 Rise Set
Actual Time 7:16 AM MST 4:13 PM MST
Civil Twilight 6:42 AM MST 4:47 PM MST
Nautical Twilight 6:05 AM MST 5:24 PM MST
Astronomical Twilight 5:29 AM MST 6:00 PM MST
Moon 4:29 PM MST (11/28) 7:16 AM MST (11/28)
Length of Visible Light 10h 04m
Length of Day
8h 56m
Full, 100% of the Moon is Illuminated
Nov 28
Full
Dec 6
Last Quarter
Dec 13
New
Dec 19
First Quarter
Dec 28
Full

Hourly Weather History & Observations

Time (MST) Temp. Windchill Dew Point Humidity Pressure Visibility Wind Dir Wind Speed Gust Speed Precip Events Conditions
12:51 AM 21.0 °F 16.2 °F 15.1 °F 78% 30.20 in 10.0 mi ESE 3.5 mph - N/A   Clear
1:51 AM 19.9 °F 14.9 °F 12.9 °F 74% 30.19 in 10.0 mi ESE 3.5 mph - N/A   Clear
2:51 AM 19.0 °F 9.0 °F 12.9 °F 77% 30.16 in 10.0 mi SE 8.1 mph - N/A   Clear
3:51 AM 19.0 °F 11.1 °F 14.0 °F 81% 30.14 in 10.0 mi ESE 5.8 mph - N/A   Clear
4:51 AM 21.0 °F 13.4 °F 15.1 °F 78% 30.12 in 10.0 mi ESE 5.8 mph - N/A   Clear
5:51 AM 21.0 °F 12.4 °F 15.1 °F 78% 30.12 in 10.0 mi ESE 6.9 mph - N/A   Clear
6:51 AM 19.0 °F 11.1 °F 14.0 °F 81% 30.12 in 10.0 mi SE 5.8 mph - N/A   Clear
7:51 AM 19.9 °F 14.9 °F 14.0 °F 78% 30.12 in 10.0 mi SE 3.5 mph - N/A   Clear
8:51 AM 23.0 °F - 17.1 °F 78% 30.13 in 10.0 mi Calm Calm - N/A   Clear
9:51 AM 34.0 °F - 23.0 °F 64% 30.10 in 10.0 mi Calm Calm - N/A   Clear
10:51 AM 39.9 °F 33.4 °F 19.9 °F 45% 30.08 in 10.0 mi West 10.4 mph - N/A   Clear
11:51 AM 41.0 °F 34.3 °F 18.0 °F 40% 30.07 in 10.0 mi West 11.5 mph - N/A   Clear
12:51 PM 42.1 °F 36.6 °F 18.0 °F 38% 30.06 in 10.0 mi WNW 9.2 mph - N/A   Clear
1:51 PM 44.1 °F 40.1 °F 19.0 °F 37% 30.05 in 10.0 mi West 6.9 mph - N/A   Clear
2:51 PM 43.0 °F 40.3 °F 19.0 °F 38% 30.04 in 10.0 mi WNW 4.6 mph - N/A   Clear
3:51 PM 39.0 °F - 19.9 °F 46% 30.05 in 10.0 mi Calm Calm - N/A   Clear
4:51 PM 27.0 °F - 18.0 °F 69% 30.06 in 10.0 mi Calm Calm - N/A   Clear
5:51 PM 25.0 °F - 17.1 °F 72% 30.07 in 10.0 mi Calm Calm - N/A   Clear
6:51 PM 24.1 °F - 17.1 °F 75% 30.06 in 10.0 mi Calm Calm - N/A   Clear
7:51 PM 23.0 °F 15.8 °F 16.0 °F 74% 30.06 in 10.0 mi East 5.8 mph - N/A   Clear
8:51 PM 24.1 °F 19.7 °F 17.1 °F 75% 30.05 in 10.0 mi SE 3.5 mph - N/A   Clear
9:51 PM 23.0 °F 13.9 °F 17.1 °F 78% 30.03 in 10.0 mi SE 8.1 mph - N/A   Clear
10:51 PM 21.9 °F 11.7 °F 16.0 °F 78% 30.01 in 10.0 mi ESE 9.2 mph - N/A   Clear